User: anonymous   Login
Location: Newark
(42.5998°N, 13.2232°E)
Time: 04:05:41
(UTC+00:00)
Language:

CUBESAT XI-V - Orbit

View from above orbital plane
View from above orbital plane
View from above satellite
View from above satellite

Ground track
Ground track

The orbit data is extracted from the following two-line orbital elements,

1 28895U 05043F   20092.10125449 +.00000140 +00000-0 +35650-4 0  9991
2 28895 097.9961 230.6796 0017360 160.6144 199.5722 14.63751424769292
Epoch (UTC): 01 April 2020 02:25:48
Eccentricity: 0.0017360
inclination: 97.9961°
perigee height: 669 km
apogee height: 693 km
right ascension of ascending node: 230.6796°
argument of perigee: 160.6144°
revolutions per day: 14.63751424
mean anomaly at epoch: 199.5722°
orbit number at epoch: 76929

The dashed part of the orbit path shows where the satellite is in the earth's shadow,  

DLR